KD7TTL Weather Reports


Display with metric or nautical units.
time (UTC)temp
F
wind
direction
speed
MPH
gust
MPH
rain 1hr
in
rain 24hr
in
rain mn
in
humidity
%
barometer
mb
20260901142514 49 68 0.0 1.0 0.00 0.00 0.00 94 1011.1
20260901142014 49 68 0.0 1.0 0.00 0.00 0.00 94 1011.1
20260901141528 49 34 0.0 1.0 0.00 0.00 0.00 94 1011.1
20260901141014 49 93 0.0 1.0 0.00 0.00 0.00 94 1011.0
20260901140516 49 34 0.0 1.0 0.00 0.00 0.00 94 1010.9
20260901140035 49 44 0.0 1.0 0.00 0.00 0.00 94 1010.9
20260901135516 49 51 0.0 1.0 0.00 0.00 0.00 94 1011.0
20260901135012 49 93 0.0 1.0 0.00 0.00 0.00 94 1010.9
20260901134528 49 51 0.0 1.0 0.00 0.00 0.00 94 1010.7
20260901134012 49 68 0.0 1.0 0.00 0.00 0.00 94 1010.7
20260901133513 49 61 0.0 1.0 0.00 0.00 0.00 94 1010.6
20260901133039 49 51 0.0 1.0 0.00 0.00 0.00 94 1010.6
20260901132513 49 61 0.0 1.0 0.00 0.00 0.00 94 1010.6
20260901132016 49 68 0.0 1.0 0.00 0.00 0.00 94 1010.6
20260901131533 49 51 0.0 1.0 0.00 0.00 0.00 93 1010.6
20260901131016 49 61 0.0 1.0 0.00 0.00 0.00 94 1010.4
20260901130516 49 68 0.0 1.0 0.00 0.00 0.00 94 1010.4
20260901130030 49 34 0.0 1.0 0.00 0.00 0.00 94 1010.3
20260901125515 49 93 0.0 1.0 0.00 0.00 0.00 93 1010.1
20260901125012 49 34 0.0 1.0 0.00 0.00 0.00 93 1010.0
20260901124529 49 51 0.0 1.0 0.00 0.00 0.00 93 1009.9
20260901124012 49 68 0.0 1.0 0.00 0.00 0.00 93 1009.9
20260901123516 48 51 0.0 1.0 0.00 0.00 0.00 93 1009.9
20260901123030 49 9 0.0 1.0 0.00 0.00 0.00 93 1009.9
20260901122516 49 68 0.0 1.0 0.00 0.00 0.00 93 1009.8
20260901122015 49 51 0.0 1.0 0.00 0.00 0.00 93 1009.9
20260901121506 49 9 0.0 1.0 0.00 0.00 0.00 93 1009.9
20260901121004 49 34 0.0 1.0 0.00 0.00 0.00 93 1009.9
20260901120504 49 51 0.0 1.0 0.00 0.00 0.00 93 1009.9
20260901120007 49 51 0.0 1.0 0.00 0.00 0.00 92 1009.9
20260901115503 49 51 0.0 1.0 0.00 0.00 0.00 93 1010.0
20260901115004 49 68 0.0 1.0 0.00 0.00 0.00 93 1010.1
20260901114504 49 68 0.0 1.0 0.00 0.00 0.00 93 1010.0
20260901114003 49 68 0.0 1.0 0.00 0.00 0.00 92 1010.1
20260901113505 49 68 0.0 1.0 0.00 0.00 0.00 92 1010.2
20260901113006 49 68 0.0 1.0 0.00 0.00 0.00 92 1010.2
20260901112502 49 68 0.0 1.0 0.00 0.00 0.00 92 1010.2
20260901112003 49 68 0.0 1.0 0.00 0.00 0.00 92 1010.2
20260901111507 49 51 0.0 1.0 0.00 0.00 0.00 92 1010.3
20260901111003 49 34 0.0 2.0 0.00 0.00 0.00 92 1010.3
20260901110504 49 68 0.0 2.0 0.00 0.00 0.00 92 1010.3
20260901110007 49 61 0.0 2.0 0.00 0.00 0.00 92 1010.3
20260901105504 49 51 0.0 1.0 0.00 0.00 0.00 91 1010.3
20260901105005 50 9 0.0 1.0 0.00 0.00 0.00 91 1010.3
20260901104505 50 76 0.0 2.0 0.00 0.00 0.00 91 1010.3
20260901104003 50 76 0.0 2.0 0.00 0.00 0.00 91 1010.2
20260901103502 50 68 0.0 1.0 0.00 0.00 0.00 91 1010.2
20260901103005 50 51 0.0 1.0 0.00 0.00 0.00 91 1010.2
20260901102505 50 51 0.0 1.0 0.00 0.00 0.00 91 1010.2
20260901102003 50 68 0.0 1.0 0.00 0.00 0.00 91 1010.2
20260901101504 50 51 0.0 1.0 0.00 0.00 0.00 91 1010.2
20260901101004 50 51 0.0 1.0 0.00 0.00 0.00 91 1010.2
20260901100504 50 68 0.0 1.0 0.00 0.00 0.00 91 1010.1
20260901100003 51 68 0.0 1.0 0.00 0.00 0.00 92 1010.2
20260901095502 51 93 0.0 1.0 0.00 0.00 0.00 92 1010.1
20260901095003 51 68 0.0 2.0 0.00 0.00 0.00 92 1010.1
20260901094531 51 51 0.0 2.0 0.00 0.00 0.00 92 1010.1
20260901094014 51 51 0.0 1.0 0.00 0.00 0.00 91 1010.1
20260901093513 51 34 0.0 1.0 0.00 0.00 0.00 91 1010.0
20260901093033 51 51 0.0 1.0 0.00 0.00 0.00 91 1009.9
20260901092512 51 51 0.0 1.0 0.00 0.00 0.00 91 1010.0
20260901092015 51 9 0.0 1.0 0.00 0.00 0.00 91 1009.9
20260901091551 51 68 0.0 1.0 0.00 0.00 0.00 91 1009.9
20260901091013 51 68 0.0 1.0 0.00 0.00 0.00 91 1009.9
20260901090514 51 51 0.0 1.0 0.00 0.00 0.00 91 1009.9
20260901090031 52 51 0.0 2.0 0.00 0.00 0.00 91 1009.8
20260901085517 52 9 0.0 2.0 0.00 0.00 0.00 91 1009.8
20260901085013 52 68 0.0 1.0 0.00 0.00 0.00 91 1009.8
20260901084533 52 51 0.0 1.0 0.00 0.00 0.00 90 1009.9
20260901084019 52 93 0.0 1.0 0.00 0.00 0.00 90 1009.9
20260901083514 52 51 0.0 1.0 0.00 0.00 0.00 90 1009.9
20260901083032 52 51 0.0 1.0 0.00 0.00 0.00 90 1010.0
20260901082514 52 51 0.0 1.0 0.00 0.00 0.00 90 1010.0
20260901082011 52 9 0.0 1.0 0.00 0.00 0.00 90 1009.9
20260901081529 52 51 0.0 1.0 0.00 0.00 0.00 90 1009.9
20260901081012 53 93 0.0 1.0 0.00 0.00 0.00 90 1009.9
20260901080516 53 9 0.0 1.0 0.00 0.00 0.00 90 1009.9
20260901080031 53 93 0.0 1.0 0.00 0.00 0.00 90 1009.9
20260901075517 53 9 0.0 1.0 0.00 0.00 0.00 89 1009.9
20260901075016 53 51 0.0 1.0 0.00 0.00 0.00 89 1009.9
20260901074530 53 51 0.0 1.0 0.00 0.00 0.00 89 1009.9
20260901074013 53 93 0.0 1.0 0.00 0.00 0.00 89 1009.9
20260901073514 53 51 0.0 1.0 0.00 0.00 0.00 89 1009.8
20260901073033 54 9 0.0 1.0 0.00 0.00 0.00 89 1009.8
20260901072513 54 9 0.0 1.0 0.00 0.00 0.00 89 1009.9
20260901072015 54 51 0.0 1.0 0.00 0.00 0.00 89 1009.8
20260901071530 54 9 0.0 1.0 0.00 0.00 0.00 89 1009.8
20260901071019 54 51 0.0 1.0 0.00 0.00 0.00 88 1009.8
20260901070513 54 9 0.0 1.0 0.00 0.00 0.00 88 1009.7
20260901070035 54 68 0.0 1.0 0.00 0.00 0.00 88 1009.8
20260901065515 55 51 0.0 1.0 0.00 0.00 0.00 88 1009.8
20260901065014 55 9 0.0 1.0 0.00 0.00 0.00 88 1009.8
20260901064536 55 68 0.0 1.0 0.00 0.00 0.00 88 1009.9
20260901064015 55 265 0.0 1.0 0.00 0.00 0.00 87 1009.9
20260901063516 55 9 0.0 1.0 0.00 0.00 0.00 87 1009.8
20260901063032 55 51 0.0 1.0 0.00 0.00 0.00 87 1009.9
20260901062516 55 51 0.0 1.0 0.00 0.00 0.00 88 1009.9
20260901062015 56 67 0.0 1.0 0.00 0.00 0.00 87 1010.0
20260901061530 56 9 0.0 1.0 0.00 0.00 0.00 87 1010.1
20260901061014 56 51 0.0 1.0 0.00 0.00 0.00 87 1010.2
20260901060516 56 93 0.0 1.0 0.00 0.00 0.00 87 1010.2
20260901060035 56 68 0.0 1.0 0.00 0.00 0.00 87 1010.2
20260901055512 56 51 0.0 1.0 0.00 0.00 0.00 86 1010.2
20260901055012 56 34 0.0 1.0 0.00 0.00 0.00 86 1010.3
20260901054529 57 51 0.0 1.0 0.00 0.00 0.00 86 1010.3
20260901054014 57 51 0.0 1.0 0.00 0.00 0.00 85 1010.3
20260901053516 57 51 0.0 1.0 0.00 0.00 0.00 86 1010.4
20260901053030 57 265 0.0 1.0 0.00 0.00 0.00 85 1010.3
20260901052513 57 34 0.0 0.0 0.00 0.00 0.00 85 1010.2
20260901052016 58 9 0.0 0.0 0.00 0.00 0.00 85 1010.2
20260901051533 58 51 0.0 1.0 0.00 0.00 0.00 84 1010.2
20260901051013 58 9 0.0 1.0 0.00 0.00 0.00 84 1010.3
20260901050513 58 325 0.0 1.0 0.00 0.00 0.00 84 1010.3
20260901050033 58 51 0.0 1.0 0.00 0.00 0.00 83 1010.3
20260901045514 59 93 0.0 1.0 0.00 0.00 0.00 83 1010.3
20260901045015 59 61 0.0 1.0 0.00 0.00 0.00 82 1010.4
20260901044531 59 9 0.0 1.0 0.00 0.00 0.00 82 1010.3
20260901044015 59 9 0.0 1.0 0.00 0.00 0.00 82 1010.3
20260901043513 60 51 0.0 1.0 0.00 0.00 0.00 82 1010.2
20260901043031 60 51 0.0 1.0 0.00 0.00 0.00 81 1010.3
20260901042511 60 34 0.0 1.0 0.00 0.00 0.00 80 1010.2
20260901042015 61 51 0.0 1.0 0.00 0.00 0.00 79 1010.2
20260901041530 61 9 0.0 1.0 0.00 0.00 0.00 79 1010.1
20260901041015 61 9 0.0 1.0 0.00 0.00 0.00 79 1010.0
20260901040513 61 51 0.0 1.0 0.00 0.00 0.00 78 1010.0
20260901040036 62 265 0.0 1.0 0.00 0.00 0.00 77 1010.0
20260901035517 62 9 0.0 1.0 0.00 0.00 0.00 77 1010.1
20260901035014 63 9 0.0 2.0 0.00 0.00 0.00 76 1010.0
20260901034528 63 51 0.0 2.0 0.00 0.00 0.00 75 1010.0
20260901034016 63 9 0.0 1.0 0.00 0.00 0.00 74 1009.9
20260901033513 64 334 0.0 1.0 0.00 0.00 0.00 73 1009.8
20260901033048 64 9 0.0 1.0 0.00 0.00 0.00 72 1009.8
20260901032513 65 9 0.0 1.0 0.00 0.00 0.00 71 1009.7
20260901032016 65 51 0.0 2.0 0.00 0.00 0.00 71 1009.6
20260901031534 65 9 0.0 2.0 0.00 0.00 0.00 70 1009.6
20260901031014 65 9 0.0 1.0 0.00 0.00 0.00 70 1009.5
20260901030518 66 9 0.0 1.0 0.00 0.00 0.00 70 1009.5
20260901030028 66 51 0.0 1.0 0.00 0.00 0.00 70 1009.4
20260901025516 66 265 0.0 2.0 0.00 0.00 0.00 70 1009.5
20260901025017 66 68 0.0 3.0 0.00 0.00 0.00 69 1009.5
20260901024529 66 34 0.0 3.0 0.00 0.00 0.00 69 1009.4
20260901024016 67 239 0.0 3.0 0.00 0.00 0.00 69 1009.5
20260901023517 67 9 0.0 3.0 0.00 0.00 0.00 68 1009.5
20260901023034 67 9 0.0 2.0 0.00 0.00 0.00 68 1009.4
20260901022514 68 34 0.0 2.0 0.00 0.00 0.00 68 1009.4
20260901022018 68 51 0.0 2.0 0.00 0.00 0.00 67 1009.5
20260901021530 68 68 0.0 3.0 0.00 0.00 0.00 67 1009.4
20260901021013 68 41 0.0 3.0 0.00 0.00 0.00 66 1009.4
20260901020514 69 309 0.0 3.0 0.00 0.00 0.00 66 1009.5
20260901020028 69 68 0.0 3.0 0.00 0.00 0.00 65 1009.5
20260901015518 69 9 1.0 5.0 0.00 0.00 0.00 65 1009.5
20260901015015 69 41 1.0 5.0 0.00 0.00 0.00 65 1009.5
20260901014528 70 9 1.0 4.0 0.00 0.00 0.00 64 1009.4
20260901014014 70 34 1.0 4.0 0.00 0.00 0.00 63 1009.4
20260901013516 70 39 1.0 3.0 0.00 0.00 0.00 63 1009.4
20260901013028 70 233 0.0 5.0 0.00 0.00 0.00 63 1009.5
20260901012515 70 221 2.0 5.0 0.00 0.00 0.00 62 1009.5
20260901012013 71 51 1.0 5.0 0.00 0.00 0.00 62 1009.5
20260901011531 71 41 1.0 5.0 0.00 0.00 0.00 62 1009.6
20260901011015 71 9 0.0 4.0 0.00 0.00 0.00 63 1009.5
20260901010514 71 26 1.0 7.0 0.00 0.00 0.00 63 1009.6
20260901010037 71 30 2.0 7.0 0.00 0.00 0.00 62 1009.6
20260901005515 72 44 1.0 5.0 0.00 0.00 0.00 62 1009.6
20260901005016 72 34 1.0 6.0 0.00 0.00 0.00 61 1009.6
20260901004534 72 24 1.0 6.0 0.00 0.00 0.00 60 1009.6
20260901004014 72 75 1.0 7.0 0.00 0.00 0.00 60 1009.6
20260901003514 73 9 2.0 7.0 0.00 0.00 0.00 59 1009.6
20260901003030 73 9 0.0 5.0 0.00 0.00 0.00 60 1009.7
20260901002517 73 44 1.0 9.0 0.00 0.00 0.00 59 1009.7
20260901002016 73 9 1.0 9.0 0.00 0.00 0.00 59 1009.9
20260901001532 73 44 2.0 9.0 0.00 0.00 0.00 59 1009.9
20260901001016 73 51 2.0 8.0 0.00 0.00 0.00 59 1010.0
20260901000517 74 9 1.0 4.0 0.00 0.00 0.00 60 1010.0
20260901000030 74 153 1.0 6.0 0.00 0.00 0.00 59 1010.0
20260831235515 74 34 2.0 8.0 0.00 0.00 0.00 58 1010.0
20260831235014 74 65 3.0 7.0 0.00 0.00 0.00 58 1010.1
20260831234537 74 51 2.0 6.0 0.00 0.00 0.00 57 1010.2
20260831234013 75 34 0.0 8.0 0.00 0.00 0.00 57 1010.1
20260831233519 75 244 3.0 8.0 0.00 0.00 0.00 56 1010.2
20260831233030 75 38 2.0 5.0 0.00 0.00 0.00 56 1010.2
20260831232517 75 68 0.0 7.0 0.00 0.00 0.00 56 1010.3
20260831232013 76 239 1.0 7.0 0.00 0.00 0.00 54 1010.3
20260831231528 76 20 1.0 5.0 0.00 0.00 0.00 53 1010.3
20260831231019 76 59 1.0 8.0 0.00 0.00 0.00 54 1010.3
20260831230516 76 46 1.0 8.0 0.00 0.00 0.00 53 1010.5
20260831230031 76 64 1.0 9.0 0.00 0.00 0.00 54 1010.5
20260831225517 76 321 4.0 11.0 0.00 0.00 0.00 54 1010.6
20260831225014 76 239 2.0 11.0 0.00 0.00 0.00 55 1010.6
20260831224530 76 46 3.0 9.0 0.00 0.00 0.00 53 1010.7
20260831224016 76 17 1.0 10.0 0.00 0.00 0.00 54 1010.9
20260831223516 76 44 5.0 10.0 0.00 0.00 0.00 53 1010.8
20260831223034 76 265 1.0 4.0 0.00 0.00 0.00 55 1010.9
20260831222514 76 100 1.0 4.0 0.00 0.00 0.00 56 1010.9
20260831222015 76 34 1.0 6.0 0.00 0.00 0.00 54 1011.1
20260831221528 76 93 2.0 6.0 0.00 0.00 0.00 53 1011.2
20260831221014 76 51 1.0 9.0 0.00 0.00 0.00 54 1011.3
20260831220513 76 265 1.0 9.0 0.00 0.00 0.00 54 1011.3
20260831220031 76 47 1.0 14.0 0.00 0.00 0.00 54 1011.3
20260831215515 76 38 1.0 14.0 0.00 0.00 0.00 55 1011.3
20260831215018 76 246 1.0 6.0 0.00 0.00 0.00 54 1011.3
20260831214539 76 44 2.0 10.0 0.00 0.00 0.00 55 1011.4
20260831214012 76 47 5.0 10.0 0.00 0.00 0.00 53 1011.5
20260831213513 76 51 1.0 7.0 0.00 0.00 0.00 54 1011.5
20260831213038 76 61 1.0 7.0 0.00 0.00 0.00 56 1011.6
20260831212513 75 17 1.0 7.0 0.00 0.00 0.00 56 1011.6
20260831212020 76 309 1.0 7.0 0.00 0.00 0.00 56 1011.6
20260831211531 75 292 2.0 10.0 0.00 0.00 0.00 56 1011.7
20260831211014 75 59 3.0 10.0 0.00 0.00 0.00 55 1011.8
20260831210515 75 19 1.0 10.0 0.00 0.00 0.00 57 1011.8
20260831210029 75 51 4.0 10.0 0.00 0.00 0.00 56 1011.8
20260831205514 75 325 1.0 9.0 0.00 0.00 0.00 57 1011.9
20260831205019 75 42 2.0 9.0 0.00 0.00 0.00 55 1011.9
20260831204530 75 236 2.0 7.0 0.00 0.00 0.00 57 1011.9
20260831204015 75 53 2.0 5.0 0.00 0.00 0.00 56 1012.0
20260831203515 74 221 2.0 9.0 0.00 0.00 0.00 55 1012.1
20260831203047 75 49 4.0 9.0 0.00 0.00 0.00 56 1012.2
20260831202515 74 243 2.0 5.0 0.00 0.00 0.00 56 1012.4
20260831202017 74 120 1.0 5.0 0.00 0.00 0.00 56 1012.5
20260831201531 74 212 0.0 5.0 0.00 0.00 0.00 57 1012.6
20260831201017 73 93 1.0 8.0 0.00 0.00 0.00 57 1012.6
20260831200513 73 44 3.0 9.0 0.00 0.00 0.00 57 1012.6
20260831200036 73 26 3.0 9.0 0.00 0.00 0.00 57 1012.6
20260831195514 74 61 2.0 4.0 0.00 0.00 0.00 56 1012.7
20260831195019 74 68 1.0 4.0 0.00 0.00 0.00 57 1012.8
20260831194530 73 44 1.0 6.0 0.00 0.00 0.00 57 1012.8
20260831194013 73 59 1.0 6.0 0.00 0.00 0.00 57 1012.9
20260831193516 72 30 0.0 4.0 0.00 0.00 0.00 59 1013.0
20260831193030 72 9 1.0 8.0 0.00 0.00 0.00 57 1013.1
20260831192514 71 93 1.0 8.0 0.00 0.00 0.00 57 1013.3
20260831192015 71 76 1.0 7.0 0.00 0.00 0.00 60 1013.3
20260831191530 71 330 4.0 7.0 0.00 0.00 0.00 59 1013.4
20260831191013 70 36 3.0 7.0 0.00 0.00 0.00 61 1013.4
20260831190513 70 257 1.0 7.0 0.00 0.00 0.00 63 1013.6
20260831190047 69 101 3.0 7.0 0.00 0.00 0.00 63 1013.6
20260831185514 69 51 1.0 9.0 0.00 0.00 0.00 64 1013.6
20260831185019 68 44 3.0 9.0 0.00 0.00 0.00 64 1013.6
20260831184532 69 51 4.0 8.0 0.00 0.00 0.00 64 1013.7
20260831184013 69 93 1.0 4.0 0.00 0.00 0.00 64 1013.7
20260831183515 68 244 1.0 4.0 0.00 0.00 0.00 66 1013.8
20260831183038 67 41 1.0 10.0 0.00 0.00 0.00 67 1013.9
20260831182514 68 30 3.0 10.0 0.00 0.00 0.00 67 1013.9
20260831182013 68 57 2.0 5.0 0.00 0.00 0.00 67 1014.0
20260831181506 67 9 1.0 3.0 0.00 0.00 0.00 69 1014.0
20260831181002 67 137 0.0 4.0 0.00 0.00 0.00 70 1014.0
20260831180502 66 9 1.0 5.0 0.00 0.00 0.00 70 1014.1
20260831180003 66 309 1.0 5.0 0.00 0.00 0.00 70 1014.4
20260831175502 65 309 1.0 6.0 0.00 0.00 0.00 71 1014.4
20260831175006 64 178 1.0 6.0 0.00 0.00 0.00 71 1014.5
20260831174507 64 38 1.0 4.0 0.00 0.00 0.00 73 1014.5
20260831174004 63 93 1.0 6.0 0.00 0.00 0.00 74 1014.5
20260831173502 63 38 3.0 6.0 0.00 0.00 0.00 73 1014.5
20260831173005 63 72 1.0 4.0 0.00 0.00 0.00 74 1014.5
20260831172501 63 43 1.0 6.0 0.00 0.00 0.00 76 1014.6
20260831172004 63 61 2.0 6.0 0.00 0.00 0.00 74 1014.7
20260831171503 62 51 1.0 3.0 0.00 0.00 0.00 76 1014.8
20260831171003 62 64 1.0 3.0 0.00 0.00 0.00 76 1014.7
20260831170503 61 76 0.0 2.0 0.00 0.00 0.00 81 1014.7
20260831170003 60 309 0.0 3.0 0.00 0.00 0.00 82 1014.7
20260831165502 59 178 1.0 3.0 0.00 0.00 0.00 85 1014.7
20260831165006 58 26 1.0 3.0 0.00 0.00 0.00 86 1014.7
20260831164504 57 51 0.0 3.0 0.00 0.00 0.00 90 1014.8
20260831164004 56 51 1.0 3.0 0.00 0.00 0.00 90 1014.8
20260831163504 55 51 0.0 3.0 0.00 0.00 0.00 93 1014.9
20260831163003 54 34 0.0 3.0 0.00 0.00 0.00 96 1015.0
20260831162505 53 61 0.0 2.0 0.00 0.00 0.00 96 1015.0
20260831162006 53 239 0.0 2.0 0.00 0.00 0.00 96 1015.1
20260831161506 52 9 0.0 2.0 0.00 0.00 0.00 96 1015.0
20260831161006 52 9 0.0 2.0 0.00 0.00 0.00 96 1015.0
20260831160503 51 178 0.0 2.0 0.00 0.00 0.00 96 1015.0
20260831160004 51 9 0.0 2.0 0.00 0.00 0.00 96 1015.1
20260831155506 51 196 0.0 2.0 0.00 0.00 0.00 96 1015.1
20260831155007 50 120 0.0 2.0 0.00 0.00 0.00 96 1015.1
20260831154516 49 51 0.0 2.0 0.00 0.00 0.00 96 1015.1
20260831154004 48 309 0.0 2.0 0.00 0.00 0.00 96 1015.2
20260831153506 48 51 0.0 2.0 0.00 0.00 0.00 96 1015.2
20260831153045 47 34 0.0 2.0 0.00 0.00 0.00 95 1015.2
20260831152510 47 9 0.0 1.0 0.00 0.00 0.00 95 1015.2
20260831152013 47 9 0.0 1.0 0.00 0.00 0.00 95 1015.3
20260831151527 47 41 0.0 1.0 0.00 0.00 0.00 95 1015.3
20260831151013 46 9 0.0 2.0 0.00 0.00 0.00 95 1015.2
20260831150512 46 34 0.0 2.0 0.00 0.00 0.00 95 1015.2
20260831150033 46 34 0.0 1.0 0.00 0.00 0.00 95 1015.2
20260831145508 46 51 0.0 2.0 0.00 0.00 0.00 95 1015.2
20260831145010 46 34 0.0 2.0 0.00 0.00 0.00 95 1015.1
20260831144526 45 26 0.0 2.0 0.00 0.00 0.00 95 1015.1
20260831144012 45 9 0.0 2.0 0.00 0.00 0.00 94 1015.1
20260831143510 45 9 0.0 1.0 0.00 0.00 0.00 94 1015.1
20260831143026 45 34 0.0 1.0 0.00 0.00 0.00 94 1015.0